Regional Weather Roundup
Issued by NWS New Orleans/Baton Rouge, LA

Home | Current Version | Previous Version | Text Only | Print | Product List | Glossary On
Versions: 1 2 3 4 5 6 7 8 9 10 11 12 13 14 15 16 17 18 19 20 21 22 23 24 25 26 27 28 29 30 31 32 33 34 35 36 37 38 39 40 41 42 43 44 45 46 47 48 49 50
905
ASUS44 KLIX 250305
RWRLIX
NEW ORLEANS REGIONAL WEATHER ROUNDUP
NATIONAL WEATHER SERVICE NEW ORLEANS LA
1000 PM CDT THU JUL 24 2014

NOTE: "FAIR" INDICATES FEW OR NO CLOUDS BELOW 12,000 FEET WITH NO
      SIGNIFICANT WEATHER AND/OR OBSTRUCTIONS TO VISIBILITY.
      SKY/WX - SKY CONDITION AND SIGNIFICANT WEATHER.
      TMP - AIR TEMPERATURE.     DP    - DEWPOINT TEMPERATURE.
      RH  - RELATIVE HUMIDITY.   PRES  - PRESSURE.
      HI  - HEAT INDEX.          WCI   - WIND CHILL INDEX.

*  THESE STATIONS ARE NOT NWS OR FAA STATIONS AND ARE NOT UNDER
   NWS QUALITY CONTROL.

LAZ038-040-048-061>063-065>067-069-250400-
SOUTHEAST LOUISIANA

CITY           SKY/WX    TMP DP  RH WIND       PRES   REMARKS
N.O. AUDUBON     N/A     82  76  81 MISG        N/A
N.O. INTL ARPT PTCLDY    80  75  84 SW8       29.98R
N.O. LAKEFRONT CLEAR     82  74  76 S8        29.98R
N.O. DOWNTOWN*   N/A     84  72  65 S3        29.98S
SLIDELL        CLEAR     78  75  90 CALM      29.97R
BATON ROUGE    CLEAR     77  74  90 CALM      29.98R
BOOTHVILLE     CLEAR     82  74  76 SW7       29.98S
BELLE CHASSE   MOCLDY    78  74  87 SW3       29.97R
BOGALUSA*        N/A     80  75  84 CALM      29.99R
GALLIANO*      NOT AVBL
NEW ROADS*       N/A     79  76  91 SW3       29.97S
GONZALES*        N/A     78  77  96 CALM      29.98R
HAMMOND*       PTCLDY    77  73  88 CALM      29.99R
HOUMA*         PTCLDY    76  72  87 CALM      29.99R
PORT FOURCHON* PTCLDY    82  77  83 SW7       30.00R

$$

MSZ070-080>082-250400-
SOUTHERN MISSISSIPPI

CITY           SKY/WX    TMP DP  RH WIND       PRES   REMARKS
MCCOMB         CLEAR     77  73  87 NW3       29.98S
GULFPORT       CLEAR     84  74  71 S3        29.97R
BILOXI         CLEAR     82  74  77 S7        29.98R
PASCAGOULA     CLEAR     77  74  90 CALM      29.98R

$$

COASTAL OBSERVATIONS
LAKE AND NEARSHORE STATIONS

STATION/POSITION TIME  TEMP    WIND        PRES    WAVE
                       AIR SEA DIR/SP/G            HT/PER
                 (UTC) (F)     (DEG/KT/KT) (MB)    (FT/S)
PASCAGOULA       0300   83     190/  6/ 11 1014.6
WAVELAND YACHT   0300   82     210/  2/  3 1014.3
GRAND ISLE       0300   82 85  220/  4/  7 1015.8
SOUTHWEST PASS   0300   83 85  220/ 10/ 14 1015.9
NEW CANAL        0300   83 84  200/  4/  6 1015.4
SHELL BEACH      0300   82 81  210/  3/  4 1014.9

OFFSHORE STATIONS

STATION/POSITION TIME  TEMP    WIND        PRES    WAVE
                       AIR SEA DIR/SP/G            HT/PER
                 (UTC) (F)     (DEG/KT/KT) (MB)    (FT/S)
64 S DAUPHIN ISL 0218   84 86  220/ 12/ 14 1016.0

$$




USA.gov is the U.S. government's official web portal to all federal, state and local government web resources and services.